GORIZONT 14 [-]

Last updated on Aug. 13, 2020, 5:30 a.m. UTC

1 17969U 87040A   20225.48211788 -.00000098  00000-0  00000-0 0  9999
2 17969  14.2304 336.3499 0029264 153.2218 215.9576  0.97658878 99012
UTC
Height (km)
Latitude
Longitude
Inclination
Orbital Period
UTC large
Height (km)
Speed (km/s)
/
Latitude / Longitude
Inclination (degrees)
Orbital Period (minutes)
Azimuth
Elevation
Range (km)
Doppler Factor
iOS Compass Heading
iOS Angle

Next 30 passes for location: Hong Kong

Rise time Rise Azimuth (degrees) Set time Set Azimuth (degrees) Duration Max altitude (degrees)

No matching passes for this satellites